Welcome to the New NWS' Forecast!
Most changes are behind the scenes, but click here for differences you might notice.

Regional Weather Roundup (RWR)

Issued by National Weather Service (NWS)

                            
480 
ASUS46 KSEW 150810
RWRWA 

WASHINGTON REGIONAL WEATHER ROUNDUP
NATIONAL WEATHER SERVICE SEATTLE WA
100 AM PDT SUN JUL 15 2018

NOTE:"FAIR" INDICATES FEW OR NO CLOUDS BELOW 12,000 FEET WITH NO 
SIGNIFICANT WEATHER AND/OR OBSTRUCTIONS TO VISIBILITY.

WAZ507-509-555>559-150900-
SEATTLE, TACOMA, EVERETT, AND VICINITY
  
CITY           SKY/WX    TMP DP  RH WIND       PRES   REMARKS
EVERETT        CLEAR     65  52  62 N3        30.06F                  
BOEING FIELD   CLEAR     72  51  47 VRB3      30.03S                  
RENTON         CLEAR     72  58  61 NW6       30.02S                  
SEATAC AIRPORT CLEAR     70  51  51 N7        30.04S                  
JBLM-MCCHORD   CLEAR     61  53  76 S3        30.04S                  
PUYALLUP       FAIR      61  57  88 CALM      30.05S                  
BREMERTON      CLEAR     63  46  54 E3        30.05R                  
JBLM-FT LEWIS  NOT AVBL                                               
TACOMA NARROWS CLEAR     65  48  54 CALM      30.04R                  
$$
 
WAZ001-503-506-510-514-515-150900-
NORTH INTERIOR
  
CITY           SKY/WX    TMP DP  RH WIND       PRES   REMARKS
BELLINGHAM     CLEAR     59  54  83 CALM      30.03S                  
FRIDAY HARBOR  CLEAR     54  47  77 CALM      30.05S                  
EASTSOUND      CLEAR     63  52  67 S6        30.03S                  
PORT ANGELES   CLEAR     55  44  66 CALM      30.05F                  
EDIZ HOOK      FAIR      56  48  75 W5        30.04F                  
PORT TOWNSEND  FAIR      54  50  87 CALM      30.05S                  
NAS WHIDBEY    CLEAR     57  49  74 SE6       30.08F                  
ARLINGTON      CLEAR     60  53  77 NW3       30.05S                  
BURLINGTON     CLEAR     59  54  82 CALM      30.05S                  
$$
 
WAZ020-022-039-040-504-511-512-150900-
SOUTHWEST INTERIOR
  
CITY           SKY/WX    TMP DP  RH WIND       PRES   REMARKS
SHELTON        CLEAR     57  53  86 CALM      30.02S                  
OLYMPIA        CLEAR     58  50  75 CALM      30.04S                  
CHEHALIS       FAIR      64  55  72 NE8       30.02S                  
KELSO          PTCLDY    67  58  72 N3        30.02S                  
VANCOUVER      CLEAR     75  56  51 CALM      29.98R                  
SCAPPOOSE, OR  CLEAR     74  53  48 N5        29.98R                  
PORTLAND, OR   CLEAR     74  56  53 NW5       29.99R                  
$$
 
WAZ021-516-517-150900-
WASHINGTON COAST
  
CITY           SKY/WX    TMP DP  RH WIND       PRES   REMARKS
FORKS          CLEAR     56  50  80 CALM      30.04S                  
HOQUIAM        CLEAR     60  57  89 S5        30.04S                  
ASTORIA, OR    CLEAR     56  54  93 CALM      30.03S                  
$$
 
WAZ019-023-024-040-567>569-150900-
CASCADE MOUNTAINS AND COLUMBIA GORGE
  
CITY           SKY/WX    TMP DP  RH WIND       PRES   REMARKS
STAMPEDE PASS  CLEAR     64  52  64 CALM      30.20S                  
TROUTDALE, OR  CLEAR     69  59  70 CALM      29.98S                  
HOOD RIVER, OR SUNNY     66  54  63 CALM      30.02R                  
THE DALLES, OR CLEAR     74  49  41 W5        29.98R                  
$$

WAZ026-027-041>044-520-521-150900-
EAST SLOPES
  
CITY           SKY/WX    TMP DP  RH WIND       PRES   REMARKS
OMAK           CLEAR     66  37  34 NW10      30.09S                  
WENATCHEE      CLEAR     74  39  28 W3        30.05S                  
ELLENSBURG     CLEAR     64  44  48 CALM      30.08R                  
YAKIMA         CLEAR     61  50  67 W8        30.04S                  
SUNNYSIDE ARPT SUNNY     60  53  78 N3        30.01S                  
YAKIMA TC        N/A     64  34  32 CALM      30.04R                  
$$

WAZ028-034-035-150900-
COLUMBIA BASIN
  
CITY           SKY/WX    TMP DP  RH WIND       PRES   REMARKS
EPHRATA        CLEAR     73  23  15 NW9       30.04R                  
MOSES LAKE     CLEAR     64  26  23 N5        30.04S                  
PASCO          PTCLDY    57  51  80 NE3       30.00R                  
RICHLAND ARPT  MOSUNNY   65  47  51 CALM      30.00R                  
HERMISTON, OR  CLEAR     64  43  46 E3        29.99S                  
$$

WAZ036>038-150900-
NORTHEAST WASHINGTON
  
CITY           SKY/WX    TMP DP  RH WIND       PRES   REMARKS
SPOKANE GEIGER CLEAR     65  34  31 SW5       30.08F                  
SPOKANE FELTS  CLEAR     59  40  49 CALM      30.08S                  
FAIRCHILD AFB  NOT AVBL                                               
COEURDALENE,ID CLEAR     57  41  55 CALM      30.09F                  
DEER PARK      CLEAR     47  33  58 N3        30.08F                  
$$

WAZ029>033-150900-
SOUTHEAST WASHINGTON
  
CITY           SKY/WX    TMP DP  RH WIND       PRES   REMARKS
PULLMAN        CLEAR     54  42  64 CALM      30.11S                  
LEWISTON, ID   CLEAR     72  39  30 S5        30.03F                  
WALLA WALLA    CLEAR     64  41  42 E3        30.02S                  
PENDLETON, OR  CLEAR     64  39  39 E8        30.03S                  
$$